| time (UTC) | temp F | wind direction | speed knots | gust knots | rain 1hr in | rain 24hr in | rain mn in | humidity % | barometer mb |
| 20260504100238 | 53 | 233 | 2.6 | 10.4 | 0.00 | 0.00 | 0.00 | 88 | 1010.3 |
| 20260504100233 | 53 | 232 | 3.5 | 11.3 | 0.00 | 0.00 | 0.00 | 89 | 1010.4 |
| 20260504081732 | 53 | 279 | 3.5 | 11.3 | 0.00 | 0.00 | 0.00 | 87 | 1010.0 |
| 20260504081234 | 54 | 275 | 3.5 | 10.4 | 0.00 | 0.00 | 0.00 | 87 | 1009.9 |
| 20260504080739 | 54 | 254 | 3.5 | 10.4 | 0.00 | 0.00 | 0.00 | 86 | 1009.9 |
| 20260504080733 | 54 | 271 | 3.5 | 10.4 | 0.00 | 0.00 | 0.00 | 86 | 1009.9 |
| 20260504080233 | 54 | 239 | 3.5 | 10.4 | 0.00 | 0.00 | 0.00 | 86 | 1010.0 |
| 20260504060230 | 58 | 250 | 3.5 | 8.7 | 0.00 | 0.00 | 0.00 | 77 | 1009.2 |
| 20260504050727 | 62 | 226 | 2.6 | 10.4 | 0.00 | 0.00 | 0.00 | 68 | 1008.7 |
| 20260504050225 | 63 | 279 | 2.6 | 10.4 | 0.00 | 0.00 | 0.00 | 67 | 1008.6 |
| 20260504045729 | 64 | 231 | 2.6 | 7.8 | 0.00 | 0.00 | 0.00 | 64 | 1008.4 |
| 20260504045725 | 63 | 246 | 2.6 | 10.4 | 0.00 | 0.00 | 0.00 | 66 | 1008.4 |
| 20260504044726 | 65 | 251 | 2.6 | 7.0 | 0.00 | 0.00 | 0.00 | 63 | 1008.3 |
| 20260504044227 | 66 | 238 | 2.6 | 7.0 | 0.00 | 0.00 | 0.00 | 61 | 1008.2 |
| 20260504043725 | 67 | 309 | 2.6 | 7.0 | 0.00 | 0.00 | 0.00 | 59 | 1008.1 |
| 20260504043223 | 68 | 234 | 1.7 | 6.1 | 0.00 | 0.00 | 0.00 | 56 | 1008.0 |
| 20260504042723 | 69 | 240 | 0.9 | 3.5 | 0.00 | 0.00 | 0.00 | 55 | 1007.9 |
| 20260504042223 | 70 | 327 | 1.7 | 7.0 | 0.00 | 0.00 | 0.00 | 53 | 1007.8 |
| 20260504041722 | 71 | 272 | 1.7 | 7.0 | 0.00 | 0.00 | 0.00 | 51 | 1007.7 |
| 20260504041223 | 71 | 226 | 1.7 | 7.8 | 0.00 | 0.00 | 0.00 | 50 | 1007.6 |
| 20260504040723 | 72 | 288 | 1.7 | 7.8 | 0.00 | 0.00 | 0.00 | 49 | 1007.5 |
| 20260504040222 | 73 | 259 | 1.7 | 6.1 | 0.00 | 0.00 | 0.00 | 48 | 1007.4 |
| 20260504035723 | 73 | 266 | 1.7 | 4.3 | 0.00 | 0.00 | 0.00 | 47 | 1007.4 |
| 20260504035222 | 74 | 281 | 1.7 | 4.3 | 0.00 | 0.00 | 0.00 | 46 | 1007.4 |
| 20260504034728 | 74 | 239 | 1.7 | 7.8 | 0.00 | 0.00 | 0.00 | 44 | 1007.3 |
| 20260504034723 | 74 | 262 | 1.7 | 7.8 | 0.00 | 0.00 | 0.00 | 44 | 1007.3 |
| 20260504033722 | 75 | 214 | 1.7 | 7.8 | 0.00 | 0.00 | 0.00 | 43 | 1007.3 |
| 20260504033222 | 75 | 267 | 0.9 | 5.2 | 0.00 | 0.00 | 0.00 | 43 | 1007.3 |
| 20260504032724 | 75 | 258 | 0.9 | 2.6 | 0.00 | 0.00 | 0.00 | 42 | 1007.2 |
| 20260504032222 | 75 | 272 | 0.0 | 1.7 | 0.00 | 0.00 | 0.00 | 42 | 1007.0 |
| 20260504031722 | 76 | 240 | 0.9 | 5.2 | 0.00 | 0.00 | 0.00 | 41 | 1007.1 |
| 20260504031229 | 78 | 281 | 0.9 | 4.3 | 0.00 | 0.00 | 0.00 | 39 | 1007.0 |
| 20260504031223 | 76 | 265 | 0.9 | 5.2 | 0.00 | 0.00 | 0.00 | 40 | 1007.0 |
| 20260504030722 | 77 | 254 | 0.9 | 5.2 | 0.00 | 0.00 | 0.00 | 40 | 1007.0 |
| 20260504030222 | 77 | 257 | 0.9 | 5.2 | 0.00 | 0.00 | 0.00 | 40 | 1007.0 |
| 20260504025722 | 77 | 254 | 0.9 | 3.5 | 0.00 | 0.00 | 0.00 | 39 | 1006.9 |
| 20260504024722 | 78 | 251 | 0.9 | 4.3 | 0.00 | 0.00 | 0.00 | 39 | 1007.0 |
| 20260504024222 | 79 | 273 | 0.9 | 4.3 | 0.00 | 0.00 | 0.00 | 37 | 1006.9 |
| 20260504023724 | 80 | 255 | 0.9 | 4.3 | 0.00 | 0.00 | 0.00 | 38 | 1006.9 |
| 20260504023224 | 80 | 246 | 0.9 | 4.3 | 0.00 | 0.00 | 0.00 | 38 | 1006.9 |
| 20260504022724 | 81 | 251 | 0.9 | 4.3 | 0.00 | 0.00 | 0.00 | 39 | 1006.9 |
| 20260504022224 | 81 | 234 | 0.9 | 4.3 | 0.00 | 0.00 | 0.00 | 39 | 1006.9 |
| 20260504021727 | 82 | 246 | 0.9 | 3.5 | 0.00 | 0.00 | 0.00 | 39 | 1006.9 |
| 20260504021723 | 81 | 230 | 0.9 | 3.5 | 0.00 | 0.00 | 0.00 | 40 | 1006.8 |
| 20260504020723 | 83 | 261 | 0.9 | 3.5 | 0.00 | 0.00 | 0.00 | 39 | 1006.9 |
| 20260504020221 | 83 | 270 | 0.9 | 4.3 | 0.00 | 0.00 | 0.00 | 39 | 1006.9 |
| 20260504015833 | 85 | 240 | 0.9 | 3.5 | 0.00 | 0.00 | 0.00 | 38 | 1006.9 |
| 20260504015724 | 85 | 250 | 0.9 | 3.5 | 0.00 | 0.00 | 0.00 | 38 | 1006.9 |
| 20260504015718 | 84 | 238 | 0.9 | 4.3 | 0.00 | 0.00 | 0.00 | 37 | 1006.9 |
| 20260504014219 | 85 | 257 | 1.7 | 6.1 | 0.00 | 0.00 | 0.00 | 41 | 1006.9 |
| 20260504013719 | 85 | 277 | 2.6 | 6.1 | 0.00 | 0.00 | 0.00 | 39 | 1006.9 |
| 20260504013222 | 85 | 205 | 2.6 | 6.1 | 0.00 | 0.00 | 0.00 | 39 | 1006.9 |
| 20260504013218 | 85 | 232 | 2.6 | 6.1 | 0.00 | 0.00 | 0.00 | 37 | 1006.8 |
| 20260504012217 | 86 | 228 | 1.7 | 6.1 | 0.00 | 0.00 | 0.00 | 38 | 1006.9 |
| 20260504011714 | 87 | 251 | 0.9 | 3.5 | 0.00 | 0.00 | 0.00 | 37 | 1006.9 |
| 20260504011214 | 87 | 250 | 0.9 | 3.5 | 0.00 | 0.00 | 0.00 | 36 | 1006.9 |
| 20260504010711 | 88 | 255 | 0.9 | 3.5 | 0.00 | 0.00 | 0.00 | 36 | 1007.0 |
| 20260504010212 | 89 | 255 | 0.9 | 3.5 | 0.00 | 0.00 | 0.00 | 38 | 1007.0 |
| 20260504005710 | 89 | 272 | 0.0 | 3.5 | 0.00 | 0.00 | 0.00 | 34 | 1007.1 |
| 20260504005211 | 90 | 238 | 0.0 | 1.7 | 0.00 | 0.00 | 0.00 | 37 | 1007.1 |
| 20260504004710 | 89 | 178 | 0.0 | 1.7 | 0.00 | 0.00 | 0.00 | 39 | 1007.1 |
| 20260504004211 | 89 | 178 | 0.9 | 2.6 | 0.00 | 0.00 | 0.00 | 34 | 1007.1 |
| 20260504003711 | 88 | 178 | 0.9 | 2.6 | 0.00 | 0.00 | 0.00 | 27 | 1007.1 |
| 20260504003210 | 88 | 176 | 0.9 | 4.3 | 0.00 | 0.00 | 0.00 | 32 | 1007.1 |
| 20260504002708 | 89 | 178 | 0.9 | 4.3 | 0.00 | 0.00 | 0.00 | 28 | 1007.1 |
| 20260504002206 | 89 | 167 | 0.0 | 2.6 | 0.00 | 0.00 | 0.00 | 32 | 1007.2 |
| 20260504001708 | 89 | 167 | 0.9 | 4.3 | 0.00 | 0.00 | 0.00 | 37 | 1007.1 |
| 20260504001202 | 89 | 166 | 0.9 | 4.3 | 0.00 | 0.00 | 0.00 | 37 | 1007.2 |
| 20260504000704 | 89 | 175 | 0.0 | 1.7 | 0.00 | 0.00 | 0.00 | 29 | 1007.1 |
| 20260504000204 | 89 | 182 | 0.9 | 3.5 | 0.00 | 0.00 | 0.00 | 34 | 1007.1 |
| 20260503235702 | 89 | 184 | 0.9 | 3.5 | 0.00 | 0.00 | 0.00 | 36 | 1007.1 |
| 20260503235202 | 89 | 13 | 0.9 | 2.6 | 0.00 | 0.00 | 0.00 | 34 | 1007.2 |
| 20260503234706 | 88 | 355 | 0.9 | 1.7 | 0.00 | 0.00 | 0.00 | 40 | 1007.2 |
| 20260503234702 | 89 | 180 | 0.9 | 1.7 | 0.00 | 0.00 | 0.00 | 36 | 1007.2 |
| 20260503233702 | 88 | 346 | 0.9 | 2.6 | 0.00 | 0.00 | 0.00 | 36 | 1007.3 |
| 20260503233203 | 88 | 329 | 0.9 | 2.6 | 0.00 | 0.00 | 0.00 | 34 | 1007.3 |
| 20260503232701 | 89 | 44 | 0.0 | 2.6 | 0.00 | 0.00 | 0.00 | 30 | 1007.4 |
| 20260503232208 | 88 | 21 | 0.9 | 2.6 | 0.00 | 0.00 | 0.00 | 32 | 1007.7 |
| 20260503232200 | 88 | 331 | 0.9 | 1.7 | 0.00 | 0.00 | 0.00 | 31 | 1007.5 |
| 20260503231700 | 88 | 323 | 0.9 | 2.6 | 0.00 | 0.00 | 0.00 | 40 | 1007.5 |
| 20260503231200 | 88 | 318 | 0.9 | 2.6 | 0.00 | 0.00 | 0.00 | 33 | 1007.5 |
| 20260503230819 | 88 | 22 | 0.9 | 2.6 | 0.00 | 0.00 | 0.00 | 41 | 1007.8 |
| 20260503230701 | 88 | 26 | 0.9 | 2.6 | 0.00 | 0.00 | 0.00 | 33 | 1007.6 |
| 20260503230426 | 88 | 313 | 0.9 | 1.7 | 0.00 | 0.00 | 0.00 | 33 | 1007.9 |
| 20260503225313 | 88 | 334 | 0.9 | 2.6 | 0.00 | 0.00 | 0.00 | 35 | 1007.9 |
| 20260503224813 | 88 | 12 | 0.9 | 2.6 | 0.00 | 0.00 | 0.00 | 39 | 1008.1 |
| 20260503223658 | 88 | 9 | 0.9 | 2.6 | 0.00 | 0.00 | 0.00 | 38 | 1008.1 |
| 20260503223159 | 87 | 162 | 0.9 | 3.5 | 0.00 | 0.00 | 0.00 | 35 | 1008.1 |
| 20260503222658 | 87 | 123 | 0.9 | 3.5 | 0.00 | 0.00 | 0.00 | 34 | 1008.2 |
| 20260503222157 | 87 | 69 | 0.9 | 2.6 | 0.00 | 0.00 | 0.00 | 31 | 1008.3 |
| 20260503221658 | 87 | 355 | 0.9 | 2.6 | 0.00 | 0.00 | 0.00 | 36 | 1008.4 |
| 20260503221159 | 87 | 178 | 0.9 | 2.6 | 0.00 | 0.00 | 0.00 | 35 | 1008.5 |
| 20260503220703 | 86 | 277 | 0.9 | 1.7 | 0.00 | 0.00 | 0.00 | 33 | 1008.6 |
| 20260503220658 | 86 | 0 | 0.9 | 1.7 | 0.00 | 0.00 | 0.00 | 38 | 1008.5 |
| 20260503215658 | 86 | 277 | 0.9 | 1.7 | 0.00 | 0.00 | 0.00 | 38 | 1008.8 |
| 20260503215203 | 86 | 177 | 0.9 | 1.7 | 0.00 | 0.00 | 0.00 | 37 | 1008.9 |
| 20260503215157 | 86 | 276 | 0.9 | 1.7 | 0.00 | 0.00 | 0.00 | 34 | 1008.8 |
| 20260503214155 | 86 | 165 | 0.9 | 3.5 | 0.00 | 0.00 | 0.00 | 38 | 1009.0 |
| 20260503213657 | 86 | 346 | 0.9 | 3.5 | 0.00 | 0.00 | 0.00 | 36 | 1009.0 |
| 20260503213156 | 86 | 20 | 0.9 | 2.6 | 0.00 | 0.00 | 0.00 | 42 | 1009.1 |
| 20260503212701 | 85 | 178 | 0.9 | 4.3 | 0.00 | 0.00 | 0.00 | 40 | 1009.2 |
| 20260503212656 | 85 | 113 | 0.9 | 4.3 | 0.00 | 0.00 | 0.00 | 42 | 1009.2 |
| 20260503212308 | 85 | 336 | 1.7 | 4.3 | 0.00 | 0.00 | 0.00 | 40 | 1009.3 |
| 20260503211156 | 85 | 351 | 0.9 | 4.3 | 0.00 | 0.00 | 0.00 | 39 | 1009.3 |
| 20260503210656 | 85 | 22 | 0.9 | 2.6 | 0.00 | 0.00 | 0.00 | 43 | 1009.3 |
| 20260503210156 | 85 | 292 | 0.9 | 6.1 | 0.00 | 0.00 | 0.00 | 45 | 1009.4 |
| 20260503205655 | 84 | 9 | 0.9 | 6.1 | 0.00 | 0.00 | 0.00 | 42 | 1009.5 |
| 20260503205200 | 83 | 340 | 0.9 | 3.5 | 0.00 | 0.00 | 0.00 | 49 | 1009.6 |
| 20260503205155 | 84 | 19 | 0.9 | 3.5 | 0.00 | 0.00 | 0.00 | 47 | 1009.5 |
| 20260503204655 | 83 | 248 | 0.9 | 3.5 | 0.00 | 0.00 | 0.00 | 44 | 1009.5 |
| 20260503203700 | 82 | 181 | 0.9 | 4.3 | 0.00 | 0.00 | 0.00 | 47 | 1009.7 |
| 20260503203654 | 83 | 34 | 0.9 | 2.6 | 0.00 | 0.00 | 0.00 | 47 | 1009.6 |
| 20260503203154 | 82 | 190 | 0.9 | 1.7 | 0.00 | 0.00 | 0.00 | 45 | 1009.7 |
| 20260503202154 | 82 | 192 | 0.9 | 4.3 | 0.00 | 0.00 | 0.00 | 48 | 1009.8 |
| 20260503201658 | 81 | 168 | 0.9 | 4.3 | 0.00 | 0.00 | 0.00 | 53 | 1010.0 |
| 20260503201654 | 81 | 208 | 0.9 | 4.3 | 0.00 | 0.00 | 0.00 | 47 | 1009.9 |
| 20260503200653 | 80 | 171 | 0.9 | 3.5 | 0.00 | 0.00 | 0.00 | 53 | 1010.0 |
| 20260503200152 | 80 | 178 | 1.7 | 4.3 | 0.00 | 0.00 | 0.00 | 51 | 1010.0 |
| 20260503195653 | 80 | 285 | 1.7 | 4.3 | 0.00 | 0.00 | 0.00 | 48 | 1010.1 |
| 20260503195152 | 80 | 336 | 0.9 | 3.5 | 0.00 | 0.00 | 0.00 | 52 | 1010.2 |
| 20260503194652 | 80 | 343 | 0.0 | 2.6 | 0.00 | 0.00 | 0.00 | 56 | 1010.3 |
| 20260503194151 | 80 | 284 | 0.9 | 2.6 | 0.00 | 0.00 | 0.00 | 51 | 1010.4 |
| 20260503193652 | 79 | 29 | 0.9 | 4.3 | 0.00 | 0.00 | 0.00 | 53 | 1010.4 |
| 20260503193152 | 79 | 25 | 0.9 | 4.3 | 0.00 | 0.00 | 0.00 | 56 | 1010.4 |
| 20260503192652 | 78 | 21 | 0.9 | 4.3 | 0.00 | 0.00 | 0.00 | 52 | 1010.4 |
| 20260503192158 | 78 | 215 | 0.9 | 3.5 | 0.00 | 0.00 | 0.00 | 57 | 1010.5 |
| 20260503192153 | 78 | 115 | 0.9 | 4.3 | 0.00 | 0.00 | 0.00 | 54 | 1010.5 |
| 20260503191158 | 77 | 180 | 1.7 | 4.3 | 0.00 | 0.00 | 0.00 | 54 | 1010.7 |
| 20260503191153 | 77 | 178 | 1.7 | 3.5 | 0.00 | 0.00 | 0.00 | 52 | 1010.6 |
| 20260503190653 | 77 | 165 | 1.7 | 4.3 | 0.00 | 0.00 | 0.00 | 54 | 1010.6 |
| 20260503185653 | 77 | 184 | 0.9 | 4.3 | 0.00 | 0.00 | 0.00 | 56 | 1010.8 |
| 20260503185153 | 77 | 54 | 0.9 | 4.3 | 0.00 | 0.00 | 0.00 | 52 | 1010.9 |
| 20260503184652 | 77 | 67 | 0.9 | 4.3 | 0.00 | 0.00 | 0.00 | 53 | 1010.9 |
| 20260503184152 | 76 | 172 | 0.9 | 2.6 | 0.00 | 0.00 | 0.00 | 55 | 1010.9 |
| 20260503183649 | 76 | 338 | 0.9 | 2.6 | 0.00 | 0.00 | 0.00 | 59 | 1010.9 |
| 20260503183151 | 76 | 183 | 0.9 | 2.6 | 0.00 | 0.00 | 0.00 | 56 | 1011.0 |
| 20260503182650 | 76 | 169 | 0.9 | 2.6 | 0.00 | 0.00 | 0.00 | 58 | 1011.0 |
| 20260503182155 | 74 | 92 | 0.9 | 4.3 | 0.00 | 0.00 | 0.00 | 65 | 1011.1 |
| 20260503182151 | 75 | 140 | 0.9 | 4.3 | 0.00 | 0.00 | 0.00 | 62 | 1011.0 |
| 20260503181150 | 74 | 74 | 0.9 | 4.3 | 0.00 | 0.00 | 0.00 | 61 | 1011.1 |
| 20260503180650 | 74 | 71 | 1.7 | 4.3 | 0.00 | 0.00 | 0.00 | 60 | 1011.1 |
| 20260503180150 | 73 | 145 | 1.7 | 4.3 | 0.00 | 0.00 | 0.00 | 60 | 1011.2 |
| 20260503175650 | 73 | 161 | 1.7 | 5.2 | 0.00 | 0.00 | 0.00 | 65 | 1011.2 |
| 20260503175150 | 73 | 176 | 1.7 | 5.2 | 0.00 | 0.00 | 0.00 | 61 | 1011.2 |
| 20260503174649 | 72 | 86 | 0.9 | 4.3 | 0.00 | 0.00 | 0.00 | 60 | 1011.2 |
| 20260503174156 | 72 | 173 | 0.9 | 3.5 | 0.00 | 0.00 | 0.00 | 62 | 1011.3 |
| 20260503174149 | 72 | 182 | 0.9 | 2.6 | 0.00 | 0.00 | 0.00 | 63 | 1011.2 |
| 20260503173650 | 72 | 146 | 0.9 | 2.6 | 0.00 | 0.00 | 0.00 | 60 | 1011.3 |
| 20260503172655 | 71 | 70 | 0.9 | 3.5 | 0.00 | 0.00 | 0.00 | 63 | 1011.3 |
| 20260503172650 | 71 | 58 | 0.9 | 3.5 | 0.00 | 0.00 | 0.00 | 63 | 1011.3 |
| 20260503171654 | 71 | 171 | 0.0 | 1.7 | 0.00 | 0.00 | 0.00 | 63 | 1011.3 |
| 20260503171649 | 71 | 175 | 0.9 | 3.5 | 0.00 | 0.00 | 0.00 | 64 | 1011.3 |
| 20260503170651 | 71 | 158 | 0.0 | 1.7 | 0.00 | 0.00 | 0.00 | 66 | 1011.3 |
| 20260503170155 | 70 | 103 | 0.0 | 2.6 | 0.00 | 0.00 | 0.00 | 68 | 1011.4 |
| 20260503170149 | 71 | 157 | 0.0 | 2.6 | 0.00 | 0.00 | 0.00 | 64 | 1011.4 |
| 20260503160148 | 65 | 166 | 0.0 | 0.0 | 0.00 | 0.00 | 0.00 | 83 | 1011.5 |
| 20260503160144 | 66 | 166 | 0.0 | 0.0 | 0.00 | 0.00 | 0.00 | 81 | 1011.5 |
| 20260503150645 | 57 | 167 | 0.0 | 0.0 | 0.00 | 0.00 | 0.00 | 95 | 1011.7 |
| 20260503150641 | 58 | 167 | 0.0 | 0.0 | 0.00 | 0.00 | 0.00 | 93 | 1011.7 |
| 20260503140135 | 49 | 167 | 0.0 | 0.0 | 0.00 | 0.00 | 0.00 | 95 | 1011.7 |
| 20260503130633 | 48 | 167 | 0.0 | 0.0 | 0.00 | 0.00 | 0.00 | 94 | 1011.4 |
| 20260503130133 | 48 | 167 | 0.0 | 0.0 | 0.00 | 0.00 | 0.00 | 94 | 1011.4 |
| 20260503120129 | 50 | 167 | 0.0 | 0.0 | 0.00 | 0.00 | 0.00 | 92 | 1011.5 |
| 20260503110123 | 52 | 177 | 0.0 | 0.0 | 0.00 | 0.00 | 0.00 | 91 | 1011.6 |